EW9959 Weather Reports


time (UTC)temp
F
wind
direction
speed
knots
gust
knots
rain 1hr
in
rain 24hr
in
rain mn
in
humidity
%
barometer
mb
20260504160404 72 253 1.7 6.1 0.00 0.00 0.00 46 991.1
20260504150905 68 147 2.6 6.1 0.00 0.00 0.00 51 991.2
20260504150405 68 299 2.6 7.8 0.00 0.00 0.00 49 991.4
20260504140905 63 270 2.6 4.3 0.00 0.00 0.00 65 991.7
20260504130404 46 287 0.0 0.0 0.00 0.00 0.00 99 991.8
20260504110404 38 202 0.0 0.0 0.00 0.00 0.00 99 991.0
20260504100404 39 183 0.0 0.0 0.00 0.00 0.00 99 991.0
20260504080904 40 202 0.0 0.0 0.00 0.00 0.00 99 990.8
20260504080404 40 167 0.0 0.0 0.00 0.00 0.00 99 990.8
20260504050405 46 170 0.0 1.7 0.00 0.00 0.00 94 991.4
20260504040903 44 172 0.0 0.0 0.00 0.00 0.00 98 991.9
20260504040405 45 169 0.0 0.9 0.00 0.00 0.00 98 991.9
20260504030904 45 196 0.9 0.9 0.00 0.00 0.00 94 991.9
20260504030404 45 171 0.9 1.7 0.00 0.00 0.00 94 991.8
20260504020904 47 180 0.0 0.0 0.00 0.00 0.00 93 991.8
20260504020406 48 173 0.0 0.9 0.00 0.00 0.00 91 991.5
20260504010904 51 192 0.9 0.9 0.00 0.00 0.00 84 991.1
20260504010404 51 201 0.9 0.9 0.00 0.00 0.00 83 991.1
20260504000404 62 197 0.0 4.3 0.00 0.00 0.00 57 990.6
20260503230904 69 283 1.7 2.6 0.00 0.00 0.00 35 990.8
20260503220904 69 256 2.6 4.3 0.00 0.00 0.00 37 991.1
20260503220404 69 240 2.6 7.8 0.00 0.00 0.00 37 991.1
20260503210404 70 197 2.6 8.7 0.00 0.00 0.00 36 991.5
20260503200905 72 272 2.6 5.2 0.00 0.00 0.00 37 992.1
20260503200405 72 216 3.5 6.1 0.00 0.00 0.00 37 992.5
20260503190905 71 290 4.3 5.2 0.00 0.00 0.00 35 993.4
20260503190406 70 283 2.6 7.8 0.00 0.00 0.00 37 993.3
20260503170905 68 282 5.2 7.0 0.00 0.00 0.00 37 994.7
20260503170405 68 311 2.6 6.1 0.00 0.00 0.00 43 994.6